Regional Weather Roundup
Issued by NWS

Home | Current Version | Previous Version | Text Only | Print | Product List | Glossary Off
Versions: 1 2 3 4 5 6 7 8 9 10 11 12 13 14 15 16 17 18 19 20 21 22 23 24 25 26 27 28 29 30 31 32 33 34 35 36 37 38 39 40 41 42 43 44 45 46 47 48 49 50

000
ASUS43 KLMK 310102
RWRKY
KENTUCKY REGIONAL WEATHER ROUNDUP
NATIONAL WEATHER SERVICE LOUISVILLE KY
900 PM EDT SAT AUG 30 2014

NOTE "FAIR" INDICATES FEW OR NO CLOUDS BELOW 12,000 FEET
WITH NO SIGNIFICANT WEATHER AND/OR OBSTRUCTIONS TO VISIBILITY.

KYZ001>023-026-027-061>063-070>075-310200-
WESTERN AND SOUTH CENTRAL KENTUCKY

CITY           SKY/WX    TMP DP  RH WIND       PRES   REMARKS
PADUCAH        CLOUDY    74  71  91 S6        30.00R
HENDERSON      CLOUDY    72  66  83 S5        30.01S
OWENSBORO      NOT AVBL
HOPKINSVILLE   CLOUDY    74  74 100 E6        30.04S
BOWLING GREEN  CLOUDY    74  71  91 CALM      30.06S
GLASGOW        HVY RAIN  71  71 100 N5        30.07F
$$

KYZ024-025-028>034-038-045-046-053-310200-
NORTH CENTRAL KENTUCKY

CITY           SKY/WX    TMP DP  RH WIND       PRES   REMARKS
LOUISVILLE/SDF LGT RAIN  74  69  85 S5        30.03R
LOUISVILLE/LOU LGT RAIN  74  70  87 CALM      30.04R
FORT KNOX      CLOUDY    72  72 100 S6        30.04R
$$

KYZ035>037-039>044-047>052-055>060-089>105-310200-
NORTHEAST KENTUCKY

CITY           SKY/WX    TMP DP  RH WIND       PRES   REMARKS
LEXINGTON      CLOUDY    75  69  81 CALM      30.07R
COVINGTON      LGT RAIN  72  69  90 S5        30.05R FOG
FRANKFORT      CLOUDY    73  71  93 SE3       30.04F
$$

KYZ054-064>069-076>088-106>120-310200-
SOUTHEAST KENTUCKY

CITY           SKY/WX    TMP DP  RH WIND       PRES   REMARKS
JACKSON        MOCLDY    79  67  66 CALM      30.09R
LONDON         MOCLDY    78  67  68 CALM      30.10R
SOMERSET       TSTM      73  70  88 SE9G20    30.12R
MIDDLESBORO    CLOUDY    73  71  94 CALM      30.12R
MONTICELLO     TSTM      74  72  93 SW12      30.14R FOG
$$



USA.gov is the U.S. government's official web portal to all federal, state and local government web resources and services.